sat.trackr.live / text

‹ back to catalog

ONEWEB-0035

NORAD 45143 · 2020-008N

PAYLOAD ACTIVE UNKNOWN

§ Identity

Operator
Country
UK
Launch date
2020-02-06
Launch site
TYMSC
Launch vehicle
Mass (kg)
RCS (m²)

Purposes: comms

External: N2YO · Heavens-Above · Gunter

§ Orbital elements

Epoch: 2026-09-20T01:28:40.945728Z

Period
109.89 min
Inclination
87.8909°
Eccentricity
0.0001721
Mean motion
13.10377054 rev/d
Perigee alt
1,220.4 km
Apogee alt
1,223.0 km
Semi-major
7,599.8 km
B*
9.2698e-6
RAAN
17.3815°
Arg perigee
97.7207°
Mean anomaly
262.4115°
Rev number
32,036

§ Raw data

ONEWEB-00351 45143U 20008N   26263.06158502  .00000016  00000+0  92698-5 0  99982 45143  87.8909  17.3815 0001721  97.7207 262.4115 13.10377054320364

JSON: /api/v1/satellites/45143 · /tle

For live sub-satellite position, see the globe view (requires WebGL).

§ Visibility from observer

Set your observer location to see the next 7 days of passes ≥ 10°. The values pass through the URL so the page stays shareable.

No JS? Fill the form by hand. The geolocation button needs JavaScript.